星链-1719 (STARLINK-1719 )

导读 | 星芒AI

STARLINK-1719 是 SpaceX Starlink 卫星互联网项目中的一颗低轨卫星,属于第 52 批组网发射的“星链”卫星之一。该卫星于 2022 年 11 月 18 日由猎鹰 9 号火箭从美国卡纳维拉尔角发射升空。它运行在约 550 公里的近地轨道上,旨在为全球用户提供高速、低延迟的宽带互联网服务。作为 Starlink 项目的重要组成部分,STARLINK-1719 有助于扩大卫星网络覆盖范围,提升服务质量和稳定性。

基本信息
目录编号:
46331
目录名称:
STARLINK-1719
国际标识:
2020-062G
轨道中心:
EARTH
卫星名称:
星链-1719
卫星全名:
星链-1719 (STARLINK-1719 )
卫星状态:
在轨 (已飞行1882 天)
发射日期:
2020-09-03 UTC
国别 :
美国 (US)
星等 :
--
轨道信息
数据来源 国际轨道数据
星历时间: 2025-10-29T17:22:10+0800
7小时前
查看轨道信息
半长轴: 6851.538km
偏心率: 0.0004049
轨道倾角: 53.053°
近地点辐角 112.337°
升交点赤经 243.047°
平近点角 247.806°
近地点: 470.628km
远地点: 476.178km
周期: 94.068分钟
每日圈数: 15.308079
详细信息
固有亮度:
5
最大亮度:
2.5
卫星平台:
Starlink V1.0
覆盖范围:
全球
运营商:
太空探索技术公司
运营商所在国:
美国
制造商(研发单位):
太空探索技术公司
制造商所在国:
美国
使用方式:
暂无
卫星简介
星链(Starlink)计划是由太空探索技术公司(SpaceX)提出的一个巨型低轨卫星互联网星座项目,计划在2019年至2024年间在太空搭建由约1.2万颗卫星组成的“星链”网络,其中1584颗将部署在地球上空550千米处的近地轨道,并从2020年开始工作。该卫星仍在工作。
2D轨道图
3D轨道图
轨道高度分析图
轨道倾角分析图
轨道综合分析图
查看轨道综合分析图